Weather History for KDIK - March, 2014

Change the Weather History Date:

Tuesday, March 11, 2014

  Actual Average Record
Temperature  
Mean Temperature 37 °F 28 °F  
Max Temperature 46 °F 39 °F 72 °F (2012)
Min Temperature 27 °F 17 °F -26 °F (1998)
Degree Days  
Heating Degree Days 28 37  
Month to date heating degree days 485 428  
Since 1 July heating degree days 7127 6722  
Cooling Degree Days 0 0  
Month to date cooling degree days 0 0  
Year to date cooling degree days 0 0  
Moisture  
Dew Point 27 °F    
Average Humidity 69    
Maximum Humidity 96    
Minimum Humidity 41    
Precipitation  
Precipitation T in 0.02 in 1.02 in (1954)
Month to date precipitation 0.08 0.20  
Year to date precipitation 0.25 0.83  
Sea Level Pressure  
Sea Level Pressure 30.11 in    
Wind  
Wind Speed 13 mph (NW)    
Max Wind Speed 25 mph    
Max Gust Speed 33 mph    
Visibility 10 miles    
Events      
T = Trace of Precipitation, MM = Missing Value Source: NWS Daily Summary

Daily Weather History Graph

Daily Weather History Graph

Search for Another Location

Airport or City:

Trip Planner

Search our weather history database for the weather conditions in past years. The results will help you decide how hot, cold, wet, or windy it might be!

Date:

Astronomy

Mar. 11, 2014 Rise Set
Actual Time 7:11 AM MDT 6:51 PM MDT
Civil Twilight 6:41 AM MDT 7:21 PM MDT
Nautical Twilight 6:06 AM MDT 7:56 PM MDT
Astronomical Twilight 5:30 AM MDT 8:32 PM MDT
Moon 2:16 PM MDT (3/11) 4:20 AM MDT (3/11)
Length of Visible Light 12h 40m
Length of Day
11h 39m
Waxing Gibbous, 78% of the Moon is Illuminated
Mar 11
Waxing Gibbous
Mar 16
Full
Mar 23
Last Quarter
Mar 30
New
Apr 7
First Quarter

Hourly Weather History & Observations

Time (MDT) Temp. Windchill Dew Point Humidity Pressure Visibility Wind Dir Wind Speed Gust Speed Precip Events Conditions
12:56 AM 33.1 °F 27.7 °F 32.0 °F 96% 29.88 in 10.0 mi NW 5.8 mph - N/A   Overcast
1:56 AM 33.1 °F 27.7 °F 30.9 °F 92% 29.90 in 10.0 mi NW 5.8 mph - N/A   Overcast
2:56 AM 33.1 °F 26.9 °F 30.0 °F 89% 29.92 in 10.0 mi NW 6.9 mph - N/A   Scattered Clouds
3:56 AM 33.1 °F 24.9 °F 28.0 °F 82% 29.93 in 10.0 mi NNW 10.4 mph - N/A   Clear
4:56 AM 32.0 °F 24.8 °F 27.0 °F 82% 29.97 in 10.0 mi NNW 8.1 mph - N/A   Clear
5:56 AM 30.9 °F 21.2 °F 26.1 °F 82% 30.00 in 10.0 mi NW 12.7 mph - N/A   Clear
6:56 AM 30.0 °F 21.1 °F 27.0 °F 88% 30.04 in 10.0 mi NW 10.4 mph - N/A   Clear
7:56 AM 30.0 °F 21.1 °F 26.1 °F 85% 30.07 in 10.0 mi NW 10.4 mph - N/A   Clear
8:56 AM 30.9 °F 20.7 °F 27.0 °F 85% 30.11 in 10.0 mi NW 13.8 mph - N/A   Clear
9:56 AM 34.0 °F 24.2 °F 28.0 °F 79% 30.14 in 10.0 mi NW 15.0 mph - N/A   Clear
10:56 AM 37.0 °F 27.7 °F 30.0 °F 76% 30.17 in 10.0 mi NW 16.1 mph - N/A   Clear
11:56 AM 39.9 °F 30.5 °F 28.9 °F 65% 30.19 in 10.0 mi NW 19.6 mph - N/A   Clear
12:56 PM 43.0 °F 34.8 °F 28.0 °F 56% 30.18 in 10.0 mi NNW 18.4 mph 23.0 mph N/A   Scattered Clouds
1:56 PM 44.1 °F 35.4 °F 24.1 °F 45% 30.18 in 10.0 mi NW 21.9 mph 28.8 mph N/A   Clear
2:56 PM 45.0 °F 37.1 °F 24.1 °F 44% 30.18 in 10.0 mi NW 19.6 mph 28.8 mph N/A   Partly Cloudy
3:56 PM 45.0 °F 39.3 °F 23.0 °F 42% 30.17 in 10.0 mi NW 11.5 mph - N/A   Partly Cloudy
4:56 PM 39.9 °F 29.0 °F 25.0 °F 55% 30.20 in 9.0 mi NW 26.5 mph 33.4 mph N/A   Overcast
5:56 PM 36.0 °F 26.7 °F 28.9 °F 76% 30.22 in 10.0 mi North 15.0 mph 29.9 mph 0.00 in   Overcast
6:03 PM 36.0 °F 27.5 °F 28.9 °F 76% 30.14 in 10.0 mi North 12.7 mph - N/A   Overcast
6:56 PM 30.9 °F 26.2 °F 27.0 °F 85% 30.22 in 10.0 mi WNW 4.6 mph - N/A   Overcast
7:56 PM 30.0 °F 23.2 °F 26.1 °F 85% 30.23 in 10.0 mi WSW 6.9 mph - N/A   Mostly Cloudy
8:56 PM 28.9 °F 20.4 °F 25.0 °F 85% 30.22 in 10.0 mi West 9.2 mph - N/A   Scattered Clouds
9:56 PM 32.0 °F 22.5 °F 23.0 °F 69% 30.21 in 10.0 mi WNW 12.7 mph - N/A   Clear
10:56 PM 32.0 °F 22.5 °F 21.9 °F 66% 30.20 in 10.0 mi NW 12.7 mph - N/A   Clear
11:56 PM 28.9 °F 19.8 °F 21.0 °F 72% 30.20 in 10.0 mi WNW 10.4 mph - N/A   Clear